Regional Weather Roundup
Issued by NWS

Home | Current Version | Previous Version | Graphics & Text | Print | Product List | Glossary On
Versions: 1 2 3 4 5 6 7 8 9 10 11 12 13 14 15 16 17 18 19 20 21 22 23 24 25 26 27
000
ASUS45 KBOI 261310
RWRID

IDAHO REGIONAL WEATHER ROUNDUP
NATIONAL WEATHER SERVICE BOISE ID
700 AM MDT SAT MAY 26 2018

NOTE: "FAIR" INDICATES FEW OR NO CLOUDS BELOW 12000 FEET
WITH NO SIGNIFICANT WEATHER AND/OR OBSTRUCTIONS TO VISIBILITY

IDZ012-014-261400-
SOUTHWEST IDAHO


CITY           SKY/WX    TMP DP  RH WIND       PRES   REMARKS
BOISE          CLEAR     55  50  83 N8        29.87R
CALDWELL       CLEAR     53  50  89 SW6       29.88R
MOUNTAIN HOME  MOCLDY    57  53  85 N9        29.86S
$$

IDZ016-017-261400-
SOUTHCENTRAL IDAHO


CITY           SKY/WX    TMP DP  RH WIND       PRES   REMARKS
BURLEY         PTCLDY    53  44  71 SW6       29.87S
JEROME         CLEAR     54  47  77 SW10      29.88S
TWIN FALLS     PTCLDY    50  45  83 S9        29.88F
$$

IDZ019>023-261400-
SOUTHEAST IDAHO


CITY           SKY/WX    TMP DP  RH WIND       PRES   REMARKS
IDAHO FALLS    SUNNY     54  45  71 S12       29.90S
POCATELLO      CLEAR     56  42  59 SW13      29.90R
REXBURG        MOSUNNY   54  44  69 S10       29.90S
$$

IDZ006-010-011-018-031-032-261400-
CENTRAL IDAHO MOUNTAINS


CITY           SKY/WX    TMP DP  RH WIND       PRES   REMARKS
MCCALL         FOG       45  45 100 CALM      29.91R VSB<1/4
HAILEY         CLEAR     46  39  76 CALM      29.90S
STANLEY          N/A     44  40  85 CALM      29.96S
SALMON         CLEAR     48  46  93 NW3       29.90R
CHALLIS        CLEAR     53  45  74 CALM      29.91R
$$

IDZ002-004-006-007-026-261400-
NORTHERN IDAHO


CITY           SKY/WX    TMP DP  RH WIND       PRES   REMARKS
LEWISTON       CLOUDY    60  58  92 CALM      29.89R
LOWELL           N/A     55  55 100 CALM      29.89R
COEUR D`ALENE  CLOUDY    58  47  66 S10       29.87R
MULLAN PASS    FOG       46  45  96 NW5       29.95S VSB 1/4
$$




USA.gov is the U.S. government's official web portal to all federal, state and local government web resources and services.